Location: Bannatyne
(13.0833°N, 59.5333°W)
Time: 17:53:46
(UTC+00:00)

CZ-4C R/B - Pass Details

Date: 18 October 2019
Orbit: 651 x 1351 km, 63.4° (Epoch: 18 November)

Event Time Altitude Azimuth Distance (km) Brightness Sun altitude
Rises 22:52:29 0° 327° (NNW) 4,200 6.2 -18.9°
Reaches altitude 10° 22:55:16 10° 324° (NW) 3,292 5.6 -19.6°
Maximum altitude 23:03:13 56° 248° (WSW) 1,567 3.8 -21.5°
Drops below altitude 10° 23:11:22 10° 172° (S) 3,359 5.3 -23.5°
Sets 23:14:15 0° 168° (SSE) 4,289 5.8 -24.2°
